DW1462 Goedereede NL current weather conditions

sailwx.info

Wind from 349

Air temperature 16.1° C

Last reported at 2018-Sep-19 08:00 UTC.
Time now 2018-Sep-19 09:07 UTC

Location: N 51°49' E 003°59'.
View on Google Maps.

See reports from other nearby stations

  
Tides and Currents Weather Stations Pressure Air Temp Water Temp Dewpoint Dewpoint Depression Visibility Wind Speed Wind Dir Waves Ship Positions
date/time (UTC)wind fromknots sea level pressurealtimeterstation pressurevisibilityair tempwater tempwave heightnotes
2018-Sep-19 08:00 349 16.1
2018-Sep-19 07:45
2018-Sep-19 07:31
2018-Sep-19 07:16
2018-Sep-19 07:00
2018-Sep-19 06:45
2018-Sep-19 06:31
2018-Sep-19 06:15
2018-Sep-19 06:00
2018-Sep-19 05:30 297 15.6
2018-Sep-19 05:15 294 15.0
2018-Sep-19 05:01 276 15.0
2018-Sep-19 04:46 275 15.0
2018-Sep-19 04:30 283 15.6
2018-Sep-19 04:15 284 15.0
2018-Sep-19 04:00 281 15.6
2018-Sep-19 03:45 309 15.6
2018-Sep-19 03:30 309 15.6
2018-Sep-19 03:16 321 15.6
2018-Sep-19 03:00 294 15.6
2018-Sep-19 02:46 304 15.6
2018-Sep-19 02:30 315 15.6
2018-Sep-19 02:15 322 15.6
2018-Sep-19 02:00 327 15.0
2018-Sep-19 01:46 330 15.0
2018-Sep-19 01:30 319 15.0
2018-Sep-19 01:16 310 15.0
2018-Sep-19 01:00 302 15.0
2018-Sep-19 00:45 306 15.0
2018-Sep-19 00:30 317 15.0
2018-Sep-19 00:15 309 15.0
2018-Sep-19 00:00 312 15.0
2018-Sep-18 23:45 313 15.0
2018-Sep-18 23:30 302 15.0
2018-Sep-18 23:15 344 15.0
2018-Sep-18 23:00 329 15.0
2018-Sep-18 22:45 329 15.0
2018-Sep-18 22:30 360 15.6
2018-Sep-18 22:16 005 15.6
2018-Sep-18 22:01 019 15.6
2018-Sep-18 21:46 031 15.6
2018-Sep-18 21:30 019 15.6
2018-Sep-18 21:15 033 15.6
2018-Sep-18 21:00 342 15.6
2018-Sep-18 20:46 036 15.6
2018-Sep-18 20:30 011 15.6
2018-Sep-18 20:15 011 15.6
2018-Sep-18 20:00 046 15.6
2018-Sep-18 19:45 048 15.6
2018-Sep-18 19:30 017 15.6
2018-Sep-18 19:15 012 15.6
2018-Sep-18 19:00 011 15.6
2018-Sep-18 18:46 019 15.6
2018-Sep-18 18:31 005 15.6
2018-Sep-18 18:15 009 15.6
2018-Sep-18 18:01 019 15.6
2018-Sep-18 17:46 038 15.6
2018-Sep-18 17:33 018 15.6
2018-Sep-18 17:16 022 16.1
2018-Sep-18 17:00 040 16.1
2018-Sep-18 16:45 030 17.2
2018-Sep-18 16:30 015 18.3
2018-Sep-18 16:15 034 20.0
2018-Sep-18 16:00 013 20.6
2018-Sep-18 15:45 033 20.6
2018-Sep-18 15:30 036 20.6
2018-Sep-18 15:15 028 20.6
2018-Sep-18 15:00 015 20.0
2018-Sep-18 14:45 041 20.6
2018-Sep-18 14:30 010 21.1
2018-Sep-18 14:15 346 21.7
2018-Sep-18 14:00 042 22.2
2018-Sep-18 13:45 034 22.2
2018-Sep-18 13:30 013 22.2
2018-Sep-18 13:15 026 21.7
2018-Sep-18 13:00 338 21.7
2018-Sep-18 12:45 319 21.7
2018-Sep-18 12:30 021 22.8
2018-Sep-18 12:15 312 22.8
2018-Sep-18 12:00 022 22.8
2018-Sep-18 11:45 011 22.8
2018-Sep-18 11:31 350 22.8
2018-Sep-18 11:16 331 22.2
2018-Sep-18 11:01 348 21.7
2018-Sep-18 10:46 360 20.6
2018-Sep-18 10:31 350 20.6
2018-Sep-18 10:16 334 20.6
2018-Sep-18 10:01 330 21.1
2018-Sep-18 09:46 340 21.1
2018-Sep-18 09:30 005 21.1
2018-Sep-18 09:16 351 20.6
2018-Sep-18 09:01 330 20.6
2018-Sep-18 08:45 311 20.0
2018-Sep-18 08:30 317 20.0
2018-Sep-18 08:15 334 20.0
2018-Sep-18 08:00 346 19.4
2018-Sep-18 07:45
2018-Sep-18 07:30 329 18.9
2018-Sep-18 07:15 344 18.9
2018-Sep-18 07:00 348 18.3
2018-Sep-18 06:45 351 17.8
2018-Sep-18 06:31 349 17.2
2018-Sep-18 06:15 333 16.7
2018-Sep-18 06:00 313 17.2
2018-Sep-18 05:30
2018-Sep-18 05:15
2018-Sep-18 05:01
2018-Sep-18 04:46
2018-Sep-18 04:30
2018-Sep-18 04:15
2018-Sep-18 04:00
2018-Sep-18 03:45
2018-Sep-18 03:30
2018-Sep-18 03:15
2018-Sep-18 03:01
2018-Sep-18 02:46
2018-Sep-18 02:31
2018-Sep-18 02:16
2018-Sep-18 02:01
2018-Sep-18 01:46
2018-Sep-18 01:30
2018-Sep-18 01:15
2018-Sep-18 01:00
2018-Sep-18 00:45
2018-Sep-18 00:30
2018-Sep-18 00:15
2018-Sep-18 00:00
2018-Sep-17 23:46
2018-Sep-17 23:30
2018-Sep-17 23:16
2018-Sep-17 23:01
2018-Sep-17 22:45
2018-Sep-17 22:30
2018-Sep-17 22:16
2018-Sep-17 22:00
2018-Sep-17 21:45
2018-Sep-17 21:30
2018-Sep-17 21:15
2018-Sep-17 21:00
2018-Sep-17 20:45
2018-Sep-17 20:31
2018-Sep-17 20:16
2018-Sep-17 20:01
2018-Sep-17 19:46
2018-Sep-17 19:31
2018-Sep-17 19:15
2018-Sep-17 18:45
2018-Sep-17 18:30
2018-Sep-17 18:16
2018-Sep-17 18:00
2018-Sep-17 17:45
2018-Sep-17 17:31
2018-Sep-17 17:15
2018-Sep-17 17:01
2018-Sep-17 16:46
2018-Sep-17 16:32
2018-Sep-17 16:15
2018-Sep-17 16:00
2018-Sep-17 15:46
2018-Sep-17 15:30
2018-Sep-17 15:15
2018-Sep-17 15:00 298 23.3
2018-Sep-17 14:45
2018-Sep-17 14:30
2018-Sep-17 14:15 257 23.3
2018-Sep-17 14:00 298 23.3
2018-Sep-17 13:45 287 22.8
2018-Sep-17 13:31 282 23.3
2018-Sep-17 13:17 296 23.3
2018-Sep-17 13:01 320 23.3
2018-Sep-17 12:45 005 22.8
2018-Sep-17 12:30 323 22.8
2018-Sep-17 12:15 298 22.2
2018-Sep-17 12:00 327 21.7
2018-Sep-17 11:45 325 21.7
2018-Sep-17 11:15 321 21.1
2018-Sep-17 11:00
2018-Sep-17 10:45
2018-Sep-17 10:31
2018-Sep-17 10:17
2018-Sep-17 10:00 336 16.7
2018-Sep-17 09:46 333 16.7
2018-Sep-17 09:32 322 16.1
2018-Sep-17 09:16 311 15.6
2018-Sep-17 09:01